Regional Weather Roundup
Issued by NWS Burlington, VT

Home | Current Version | Previous Version | Text Only | Print | Product List | Glossary On
Versions: 1 2 3 4 5 6 7 8 9 10 11 12 13 14 15 16 17 18 19 20 21 22 23 24 25 26 27 28 29 30 31 32 33 34 35 36 37 38 39 40 41 42 43 44 45 46 47 48 49 50
000
ASUS41 KBTV 072030
RWRBTV
VERMONT REGIONAL WEATHER ROUNDUP
NATIONAL WEATHER SERVICE BURLINGTON VT
300 PM EST WED DEC 07 2016

NOTE: "FAIR" INDICATES FEW OR NO CLOUDS BELOW 12,000 FEET WITH NO
SIGNIFICANT WEATHER AND/OR OBSTRUCTIONS TO VISIBILITY.

* THESE REPORTS ARE NOT UNDER NWS QUALITY CONTROL AND/OR DO NOT
  REPORT WEATHER SUCH AS PRECIPITATION AND FOG.

VTZ001>019-072100-
_____VERMONT_____


CITY           SKY/WX    TMP DP  RH WIND       PRES   REMARKS
BURLINGTON     MOCLDY    38  33  82 S7        29.90R
MONTPELIER     CLOUDY    35  33  92 SW3       29.91R
MORRISVILLE    PTCLDY    35  31  85 S6        29.90R WCI  30
ST. JOHNSBURY*   N/A     35  32  88 MISG      29.88R
LYNDONVILLE*   CLOUDY    32  32  99 CALM      29.90R
MIDDLEBURY*    MOCLDY    37  37 100 S3        29.91S
RUTLAND*       PTCLDY    37  34  87 SW8       29.92R WCI  31
SPRINGFIELD    LGT RAIN  34  32  92 CALM      29.93R FOG
HIGHGATE*      CLOUDY    39  34  83 CALM      29.88R
NEWPORT*       CLOUDY    33  31  92 S6        29.89R WCI  28
BENNINGTON     PTSUNNY   40  32  73 W10       29.94R
SUTTON*          N/A     30 N/A N/A MISG        N/A
ISLAND POND*     N/A     32 N/A N/A SE2         N/A
GALLUP MILLS*    N/A     32 N/A N/A MISG        N/A
UNION VILLAGE*   N/A     34 N/A N/A MISG        N/A
MT. MANSFIELD*   N/A     27 N/A N/A W25         N/A  WCI  11

_____LAKE CHAMPLAIN_____


CITY           SKY/WX    TMP DP  RH WIND       PRES   REMARKS
BURTON ISLAND*   N/A     41  37  87 S16         N/A
COLCHESTER RF*   N/A     41  37  87 S16         N/A
DIAMOND ISL*     N/A     39  36  87 S9          N/A

$$

NYZ007-026>031-035-052-083-087-072100-
_____NORTHERN NEW YORK_____


CITY           SKY/WX    TMP DP  RH WIND       PRES   REMARKS
PLATTSBURGH    PTCLDY    42  29  59 VRB5      29.89R
SARANAC LAKE   MOCLDY    34  27  75 W8        29.84R WCI  27
MASSENA        CLOUDY    41  28  60 W15       29.90R
OGDENSBURG*    MOSUNNY   39  28  65 SW10G18   29.90R
POTSDAM*       PTSUNNY   37  30  75 W16G22    29.90R WCI  28
STARK FALLS*     N/A     36 N/A N/A SW10        N/A  WCI  28
WATERTOWN      CLOUDY    38  28  67 SW13G23   29.94R WCI  30
FT DRUM        CLOUDY    37  28  70 W7        29.91R WCI  32
ALBANY         PTSUNNY   40  36  86 SW5       29.97R
GLENS FALLS    MOSUNNY   39  34  82 SW8       29.95R HAZE

$$
NHZ002-005-011-072100-
_____NEW HAMPSHIRE_____


CITY           SKY/WX    TMP DP  RH WIND       PRES   REMARKS
LEBANON        CLOUDY    36  34  92 S5        29.91R
KEENE          CLOUDY    38  35  89 CALM      29.94R
MT WASHINGTON  SNOWSHWR  18  18 100 W40G46      N/A  VSB 0   WCI  -4
PLYMOUTH         N/A     33  31  96 CALM      29.93R FOG
WHITEFIELD     LGT SNOW  32  28  85 CALM      29.88R FOG

$$

_____REGIONAL QUEBEC LOCATIONS_____


CITY           SKY/WX    TMP DP  RH WIND       PRES   REMARKS
MONTREAL       CLOUDY    37  34  87 W6        29.86R
QUEBEC CITY    LGT SNOW  27  25  93 NE6       29.83F WCI  20
SHERBROOKE     LGT RAIN  34  32  93 SW8       29.85R FOG     WCI  27

_____REGIONAL ONTARIO LOCATIONS_____


CITY           SKY/WX    TMP DP  RH WIND       PRES   REMARKS
OTTAWA         MOCLDY    37  28  70 SW13G23   29.86R WCI  29

______KEY______
VSB  - VISIBILITY IN MILES
WCI  - WIND CHILL INDEX
HX   - HEAT INDEX
$$
NNNN




USA.gov is the U.S. government's official web portal to all federal, state and local government web resources and services.